Zurück zum Katalog

STARLINK-31631

AktivKommunikationVLEO
NORAD 59459·PAYLOAD·🇺🇸 United States

Gestartet Apr 10, 2024 von Cape Canaveral Space Force Station

Loading…

Nächste Überflüge (nächste 24 Stunden)

TLE

AktuellSource: CelesTrak SupGP

Epoche: Sep 15, 2026, 02:00 UTC

1 59459C 24068E   26258.08381944 -.00028950  00000+0 -10485-2 0  2585
2 59459  43.0021  41.1749 0001506 269.5540  11.1045 15.27595640    10

Verfolge STARLINK-31631 in Echtzeit mit AllMySat

Download on the App Store